K4HG-2 Weather Reports


Display with metric or nautical units.
time (UTC)temp
F
wind
direction
speed
MPH
gust
MPH
rain 1hr
in
rain 24hr
in
rain mn
in
humidity
%
barometer
mb
20190322062015 70 254 10.0 13.0 0.00 0.00 0.00 70 1016.5
20190322061815 70 275 7.0 16.0 0.00 0.00 0.00 70 1016.6
20190322061615 70 285 7.0 16.0 0.00 0.00 0.00 70 1016.5
20190322061416 69 237 9.0 16.0 0.00 0.00 0.00 70 1016.6
20190322061216 70 276 8.0 18.0 0.00 0.00 0.00 69 1016.6
20190322061015 70 231 10.0 18.0 0.00 0.00 0.00 69 1016.6
20190322060815 70 282 8.0 11.0 0.00 0.00 0.00 70 1016.6
20190322060616 70 273 3.0 11.0 0.00 0.00 0.00 69 1016.6
20190322060415 70 328 0.0 11.0 0.00 0.00 0.00 69 1016.7
20190322060215 70 285 3.0 17.0 0.00 0.00 0.00 69 1016.7
20190322060016 70 240 5.0 17.0 0.00 0.00 0.00 69 1016.7
20190322055816 70 290 6.0 17.0 0.00 0.00 0.00 69 1016.7
20190322055616 70 283 9.0 17.0 0.00 0.00 0.00 69 1016.7
20190322055415 70 293 8.0 17.0 0.00 0.00 0.00 68 1016.7
20190322055215 69 282 1.0 14.0 0.00 0.00 0.00 68 1016.7
20190322055016 70 279 5.0 14.0 0.00 0.00 0.00 68 1016.7
20190322054816 70 282 9.0 12.0 0.00 0.00 0.00 68 1016.8
20190322054615 69 16 2.0 12.0 0.00 0.00 0.00 68 1016.7
20190322054415 70 307 7.0 12.0 0.00 0.00 0.00 68 1016.7
20190322054216 70 279 10.0 15.0 0.00 0.00 0.00 68 1016.7
20190322054016 69 256 9.0 15.0 0.00 0.00 0.00 68 1016.7
20190322053816 69 296 3.0 18.0 0.00 0.00 0.00 68 1016.7
20190322053616 70 209 5.0 18.0 0.00 0.00 0.00 68 1016.7
20190322053416 70 270 7.0 18.0 0.00 0.00 0.00 68 1016.7
20190322053216 70 265 16.0 15.0 0.00 0.00 0.00 68 1016.7
20190322053016 70 273 7.0 15.0 0.00 0.00 0.00 68 1016.7
20190322052816 70 273 9.0 15.0 0.00 0.00 0.00 67 1016.7
20190322052415 70 339 3.0 15.0 0.00 0.00 0.00 67 1016.7
20190322052216 70 265 6.0 12.0 0.00 0.00 0.00 67 1016.7
20190322052015 70 254 9.0 12.0 0.00 0.00 0.00 67 1016.7
20190322051616 70 280 3.0 15.0 0.00 0.00 0.00 66 1016.7
20190322051415 70 293 4.0 15.0 0.00 0.00 0.00 66 1016.7
20190322051215 70 287 7.0 14.0 0.00 0.00 0.00 66 1016.7
20190322051016 70 269 10.0 14.0 0.00 0.00 0.00 66 1016.7
20190322050616 69 286 7.0 18.0 0.00 0.00 0.00 66 1016.6
20190322050416 70 290 6.0 18.0 0.00 0.00 0.00 66 1016.7
20190322050216 70 276 10.0 15.0 0.00 0.00 0.00 66 1016.7
20190322050015 70 235 3.0 15.0 0.00 0.00 0.00 66 1016.7
20190322045815 69 272 7.0 16.0 0.00 0.00 0.00 66 1016.6
20190322045616 69 252 4.0 16.0 0.00 0.00 0.00 66 1016.7
20190322045415 70 258 5.0 16.0 0.00 0.00 0.00 65 1016.6
20190322045215 69 324 7.0 12.0 0.00 0.00 0.00 65 1016.6
20190322045016 69 7 0.0 12.0 0.00 0.00 0.00 65 1016.6
20190322044816 70 282 8.0 17.0 0.00 0.00 0.00 65 1016.6
20190322044615 70 328 5.0 17.0 0.00 0.00 0.00 65 1016.7
20190322044416 70 282 0.0 17.0 0.00 0.00 0.00 65 1016.6
20190322044216 70 344 4.0 14.0 0.00 0.00 0.00 66 1016.7
20190322043416 69 214 6.0 16.0 0.00 0.00 0.00 65 1016.7
20190322043216 70 335 8.0 18.0 0.00 0.00 0.00 65 1016.7
20190322043016 70 237 9.0 18.0 0.00 0.00 0.00 65 1016.8
20190322042815 70 290 7.0 13.0 0.00 0.00 0.00 65 1016.7
20190322042615 69 290 7.0 13.0 0.00 0.00 0.00 65 1016.7
20190322042416 70 289 9.0 13.0 0.00 0.00 0.00 65 1016.7
20190322042216 70 10 2.0 16.0 0.00 0.00 0.00 65 1016.8
20190322042015 70 283 4.0 16.0 0.00 0.00 0.00 65 1016.8
20190322041815 70 311 4.0 13.0 0.00 0.00 0.00 65 1016.9
20190322041616 70 292 5.0 13.0 0.00 0.00 0.00 65 1016.9
20190322041416 70 216 11.0 13.0 0.00 0.00 0.00 66 1016.8
20190322041216 70 252 6.0 10.0 0.00 0.00 0.00 67 1016.9
20190322041015 70 254 6.0 10.0 0.00 0.00 0.00 67 1016.8
20190322040816 70 306 0.0 13.0 0.00 0.00 0.00 66 1016.8
20190322040616 70 306 0.0 13.0 0.00 0.00 0.00 66 1016.9
20190322040416 70 287 6.0 13.0 0.00 0.00 0.00 66 1016.9
20190322040220 70 270 10.0 15.0 0.00 0.00 0.00 66 1016.9
20190322040015 70 24 5.0 15.0 0.00 0.00 0.00 66 1016.8
20190322035816 70 328 2.0 14.0 0.00 0.00 0.00 65 1016.8
20190322035615 70 280 3.0 14.0 0.00 0.00 0.00 66 1016.8
20190322035415 70 301 3.0 14.0 0.00 0.00 0.00 67 1016.9
20190322035216 70 287 6.0 12.0 0.00 0.00 0.00 67 1016.9
20190322035015 70 318 3.0 12.0 0.00 0.00 0.00 67 1016.9
20190322034815 70 294 8.0 15.0 0.00 0.00 0.00 67 1016.9
20190322034615 70 301 0.0 15.0 0.00 0.00 0.00 67 1016.9
20190322034416 70 286 5.0 15.0 0.00 0.00 0.00 67 1016.8
20190322034215 70 34 3.0 17.0 0.00 0.00 0.00 67 1016.8
20190322034015 70 283 8.0 17.0 0.00 0.00 0.00 67 1016.8
20190322033816 70 270 9.0 12.0 0.00 0.00 0.00 68 1016.8
20190322033617 70 5 3.0 12.0 0.00 0.00 0.00 68 1016.8
20190322033016 70 273 7.0 14.0 0.00 0.00 0.00 67 1016.8
20190322032415 70 280 6.0 18.0 0.00 0.00 0.00 67 1016.8
20190322032215 70 247 7.0 16.0 0.00 0.00 0.00 66 1016.8
20190322032016 70 290 6.0 16.0 0.00 0.00 0.00 66 1016.9
20190322031816 70 256 11.0 17.0 0.00 0.00 0.00 66 1016.9
20190322031615 70 262 7.0 17.0 0.00 0.00 0.00 66 1016.9
20190322031415 70 249 9.0 17.0 0.00 0.00 0.00 66 1016.9
20190322031215 70 268 7.0 16.0 0.00 0.00 0.00 66 1016.8
20190322031016 70 286 6.0 16.0 0.00 0.00 0.00 66 1016.9
20190322030816 70 286 11.0 16.0 0.00 0.00 0.00 66 1016.9
20190322030615 70 272 7.0 16.0 0.00 0.00 0.00 66 1016.9
20190322030216 70 296 9.0 18.0 0.00 0.00 0.00 67 1016.8
20190322030016 70 268 8.0 18.0 0.00 0.00 0.00 67 1016.8
20190322025815 70 232 15.0 18.0 0.00 0.00 0.00 67 1016.8
20190322025615 70 276 12.0 18.0 0.00 0.00 0.00 67 1016.8
20190322025416 70 265 8.0 18.0 0.00 0.00 0.00 67 1016.8
20190322025216 70 282 9.0 17.0 0.00 0.00 0.00 68 1016.7
20190322025016 70 265 10.0 17.0 0.00 0.00 0.00 68 1016.7
20190322024816 70 276 7.0 15.0 0.00 0.00 0.00 68 1016.7
20190322024616 70 258 11.0 15.0 0.00 0.00 0.00 69 1016.6
20190322024415 70 289 9.0 15.0 0.00 0.00 0.00 69 1016.7
20190322024016 70 293 5.0 17.0 0.00 0.00 0.00 69 1016.5
20190322023816 70 262 9.0 15.0 0.00 0.00 0.00 69 1016.6
20190322023616 70 287 9.0 15.0 0.00 0.00 0.00 68 1016.5
20190322023416 70 273 13.0 15.0 0.00 0.00 0.00 69 1016.6
20190322022815 70 285 8.0 18.0 0.00 0.00 0.00 68 1016.5
20190322022615 70 272 11.0 18.0 0.00 0.00 0.00 68 1016.5
20190322022416 70 287 4.0 18.0 0.00 0.00 0.00 69 1016.5
20190322022216 70 279 11.0 16.0 0.00 0.00 0.00 69 1016.4
20190322022015 71 283 9.0 16.0 0.00 0.00 0.00 69 1016.4
20190322021815 70 252 11.0 15.0 0.00 0.00 0.00 69 1016.4
20190322021615 71 252 8.0 15.0 0.00 0.00 0.00 69 1016.4
20190322021416 70 303 4.0 15.0 0.00 0.00 0.00 69 1016.3
20190322021216 70 286 10.0 16.0 0.00 0.00 0.00 68 1016.3
20190322020816 70 255 7.0 17.0 0.00 0.00 0.00 67 1016.3
20190322020616 70 263 13.0 17.0 0.00 0.00 0.00 67 1016.3
20190322020416 70 282 10.0 17.0 0.00 0.00 0.00 68 1016.3
20190322020216 70 235 9.0 18.0 0.00 0.00 0.00 68 1016.3
20190322020016 70 277 13.0 18.0 0.00 0.00 0.00 68 1016.3
20190322015616 71 297 7.0 16.0 0.00 0.00 0.00 69 1016.2
20190322015415 71 272 12.0 16.0 0.00 0.00 0.00 69 1016.2
20190322015215 71 292 6.0 15.0 0.00 0.00 0.00 69 1016.1
20190322015016 71 270 6.0 15.0 0.00 0.00 0.00 69 1016.2
20190322014616 71 275 10.0 14.0 0.00 0.00 0.00 69 1016.1
20190322014416 71 242 9.0 14.0 0.00 0.00 0.00 69 1016.1
20190322014217 71 280 9.0 15.0 0.00 0.00 0.00 69 1016.0
20190322014016 71 283 6.0 15.0 0.00 0.00 0.00 69 1016.0
20190322013815 71 266 10.0 17.0 0.00 0.00 0.00 69 1016.0
20190322013615 71 265 9.0 17.0 0.00 0.00 0.00 69 1015.9
20190322013016 71 273 10.0 17.0 0.00 0.00 0.00 68 1015.9
20190322012615 71 276 7.0 17.0 0.00 0.00 0.00 69 1015.8
20190322012216 71 268 10.0 19.0 0.00 0.00 0.00 69 1015.8
20190322011615 71 276 8.0 16.0 0.00 0.00 0.00 69 1015.7
20190322011416 71 270 5.0 16.0 0.00 0.00 0.00 69 1015.7
20190322011216 71 296 9.0 16.0 0.00 0.00 0.00 69 1015.7
20190322011016 71 286 8.0 16.0 0.00 0.00 0.00 68 1015.7
20190322010815 71 294 8.0 19.0 0.00 0.00 0.00 68 1015.6
20190322010615 71 358 8.0 19.0 0.00 0.00 0.00 68 1015.6
20190322010415 71 261 7.0 19.0 0.00 0.00 0.00 68 1015.6
20190322010215 71 301 9.0 19.0 0.00 0.00 0.00 68 1015.6
20190322010016 71 220 8.0 19.0 0.00 0.00 0.00 68 1015.5
20190322005816 71 242 6.0 18.0 0.00 0.00 0.00 68 1015.5
20190322005616 71 251 7.0 18.0 0.00 0.00 0.00 68 1015.5
20190322005416 71 286 5.0 18.0 0.00 0.00 0.00 68 1015.4
20190322005215 71 283 6.0 16.0 0.00 0.00 0.00 68 1015.4
20190322005016 71 289 3.0 16.0 0.00 0.00 0.00 69 1015.4
20190322004815 71 273 7.0 15.0 0.00 0.00 0.00 69 1015.4
20190322004616 71 273 7.0 15.0 0.00 0.00 0.00 69 1015.3
20190322004416 71 280 7.0 15.0 0.00 0.00 0.00 68 1015.3
20190322004215 71 286 7.0 16.0 0.00 0.00 0.00 68 1015.3
20190322004015 71 286 7.0 16.0 0.00 0.00 0.00 68 1015.3
20190322003815 71 258 5.0 16.0 0.00 0.00 0.00 68 1015.3
20190322003615 71 227 8.0 16.0 0.00 0.00 0.00 68 1015.3
20190322003015 71 251 4.0 11.0 0.00 0.00 0.00 69 1015.3
20190322002815 71 279 4.0 16.0 0.00 0.00 0.00 68 1015.3
20190322002615 71 280 6.0 16.0 0.00 0.00 0.00 68 1015.3
20190322002415 71 293 7.0 16.0 0.00 0.00 0.00 68 1015.3
20190322002216 71 280 5.0 17.0 0.00 0.00 0.00 67 1015.3
20190322001815 72 277 10.0 17.0 0.00 0.00 0.00 68 1015.3
20190322001615 72 256 11.0 17.0 0.00 0.00 0.00 68 1015.3
20190322001415 72 261 6.0 17.0 0.00 0.00 0.00 68 1015.3
20190322001215 72 275 13.0 16.0 0.00 0.00 0.00 68 1015.3
20190322001015 71 285 10.0 16.0 0.00 0.00 0.00 68 1015.3
20190322000817 72 266 10.0 20.0 0.00 0.00 0.00 68 1015.4
20190322000415 72 292 7.0 20.0 0.00 0.00 0.00 68 1015.3
20190322000217 71 300 8.0 15.0 0.00 0.00 0.00 68 1015.3
20190322000016 72 237 4.0 15.0 0.00 0.00 0.00 68 1015.3
20190321235816 72 255 8.0 14.0 0.00 0.00 0.00 67 1015.3
20190321235615 72 355 6.0 14.0 0.00 0.00 0.00 67 1015.2
20190321235415 72 328 7.0 14.0 0.00 0.00 0.00 67 1015.3
20190321235215 72 266 11.0 14.0 0.00 0.00 0.00 67 1015.2
20190321234816 72 263 9.0 17.0 0.00 0.00 0.00 67 1015.2
20190321234616 72 286 12.0 17.0 0.00 0.00 0.00 67 1015.1
20190321234416 72 275 9.0 17.0 0.00 0.00 0.00 67 1015.2
20190321234216 72 262 9.0 18.0 0.00 0.00 0.00 67 1015.1
20190321234016 72 263 8.0 18.0 0.00 0.00 0.00 66 1015.1
20190321233815 72 227 9.0 18.0 0.00 0.00 0.00 67 1015.1
20190321233630 72 244 8.0 18.0 0.00 0.00 0.00 66 1015.1
20190321233415 72 259 10.0 18.0 0.00 0.00 0.00 67 1015.1
20190321233216 72 296 7.0 16.0 0.00 0.00 0.00 67 1015.1
20190321232815 73 332 4.0 17.0 0.00 0.00 0.00 68 1015.2
20190321232616 72 240 2.0 17.0 0.00 0.00 0.00 67 1015.1
20190321232416 72 237 3.0 17.0 0.00 0.00 0.00 67 1015.1
20190321231816 72 273 11.0 19.0 0.00 0.00 0.00 67 1015.1
20190321231616 72 311 9.0 19.0 0.00 0.00 0.00 66 1015.1
20190321231216 73 263 11.0 16.0 0.00 0.00 0.00 65 1015.0
20190321231016 73 272 7.0 16.0 0.00 0.00 0.00 66 1015.1
20190321230615 73 266 10.0 18.0 0.00 0.00 0.00 67 1015.0
20190321230416 73 273 4.0 18.0 0.00 0.00 0.00 67 1015.0
20190321230015 73 270 16.0 15.0 0.00 0.00 0.00 66 1015.0
20190321225816 73 282 11.0 14.0 0.00 0.00 0.00 67 1015.0
20190321225615 73 9 2.0 14.0 0.00 0.00 0.00 67 1015.0
20190321225415 73 268 1.0 14.0 0.00 0.00 0.00 67 1015.0
20190321225215 73 238 7.0 14.0 0.00 0.00 0.00 68 1015.0
20190321225016 73 17 4.0 14.0 0.00 0.00 0.00 67 1015.0
20190321224816 73 263 12.0 18.0 0.00 0.00 0.00 67 1015.0
20190321224616 74 252 14.0 18.0 0.00 0.00 0.00 67 1015.0
20190321224415 73 254 8.0 18.0 0.00 0.00 0.00 67 1015.0
20190321224215 74 227 5.0 15.0 0.00 0.00 0.00 68 1015.0
20190321224016 74 285 11.0 15.0 0.00 0.00 0.00 68 1015.0
20190321223016 74 285 6.0 18.0 0.00 0.00 0.00 68 1014.8
20190321222816 74 256 4.0 16.0 0.00 0.00 0.00 68 1014.8
20190321222615 74 276 11.0 16.0 0.00 0.00 0.00 68 1014.9
20190321222415 74 268 8.0 16.0 0.00 0.00 0.00 68 1014.8
20190321222015 74 290 9.0 13.0 0.00 0.00 0.00 68 1014.8
20190321221815 74 294 9.0 18.0 0.00 0.00 0.00 68 1014.8
20190321221615 74 261 12.0 18.0 0.00 0.00 0.00 68 1014.8
20190321221416 74 293 5.0 18.0 0.00 0.00 0.00 68 1014.7
20190321221216 74 286 8.0 19.0 0.00 0.00 0.00 67 1014.7
20190321220815 74 299 4.0 17.0 0.00 0.00 0.00 67 1014.7
20190321220615 74 241 7.0 17.0 0.00 0.00 0.00 67 1014.7
20190321220415 74 265 8.0 17.0 0.00 0.00 0.00 68 1014.7
20190321220215 74 341 5.0 18.0 0.00 0.00 0.00 68 1014.7
20190321220016 74 328 10.0 18.0 0.00 0.00 0.00 68 1014.7
20190321215615 74 290 13.0 21.0 0.00 0.00 0.00 68 1014.7
20190321215416 74 272 4.0 21.0 0.00 0.00 0.00 68 1014.7
20190321215215 74 282 11.0 16.0 0.00 0.00 0.00 68 1014.7
20190321215015 75 263 9.0 16.0 0.00 0.00 0.00 68 1014.6
20190321214815 74 296 11.0 16.0 0.00 0.00 0.00 68 1014.6
20190321214616 75 299 13.0 16.0 0.00 0.00 0.00 68 1014.6
20190321214415 75 282 2.0 16.0 0.00 0.00 0.00 68 1014.6
20190321214215 75 293 7.0 15.0 0.00 0.00 0.00 68 1014.6
20190321214016 75 249 5.0 15.0 0.00 0.00 0.00 68 1014.6
20190321213816 75 254 8.0 18.0 0.00 0.00 0.00 67 1014.6
20190321213616 75 231 7.0 18.0 0.00 0.00 0.00 68 1014.6
20190321213416 75 247 6.0 18.0 0.00 0.00 0.00 68 1014.7
20190321213215 75 262 13.0 16.0 0.00 0.00 0.00 68 1014.6
20190321213016 75 270 13.0 16.0 0.00 0.00 0.00 68 1014.7
20190321212616 75 289 6.0 16.0 0.00 0.00 0.00 68 1014.6
20190321212415 75 261 7.0 16.0 0.00 0.00 0.00 68 1014.6
20190321212215 75 280 11.0 19.0 0.00 0.00 0.00 67 1014.6
20190321212016 75 270 12.0 19.0 0.00 0.00 0.00 67 1014.7
20190321211816 75 313 9.0 17.0 0.00 0.00 0.00 68 1014.7
20190321211616 75 255 8.0 17.0 0.00 0.00 0.00 67 1014.7
20190321211416 75 287 12.0 17.0 0.00 0.00 0.00 68 1014.7
20190321211217 75 251 9.0 17.0 0.00 0.00 0.00 68 1014.7
20190321211015 75 248 10.0 17.0 0.00 0.00 0.00 68 1014.7
20190321210816 75 263 11.0 16.0 0.00 0.00 0.00 68 1014.7
20190321210615 75 314 8.0 16.0 0.00 0.00 0.00 68 1014.7
20190321210216 75 22 4.0 15.0 0.00 0.00 0.00 68 1014.7
20190321210015 75 269 4.0 15.0 0.00 0.00 0.00 68 1014.7
20190321205815 75 256 6.0 20.0 0.00 0.00 0.00 68 1014.7
20190321205616 75 263 5.0 20.0 0.00 0.00 0.00 68 1014.7
20190321205415 75 266 11.0 20.0 0.00 0.00 0.00 67 1014.6
20190321205016 75 327 4.0 16.0 0.00 0.00 0.00 67 1014.6
20190321204415 76 0 10.0 19.0 0.00 0.00 0.00 67 1014.6
20190321204216 75 280 11.0 16.0 0.00 0.00 0.00 67 1014.6
20190321204015 75 321 7.0 16.0 0.00 0.00 0.00 68 1014.6
20190321203815 75 269 9.0 21.0 0.00 0.00 0.00 67 1014.5
20190321203615 76 269 7.0 21.0 0.00 0.00 0.00 67 1014.6
20190321203415 75 259 10.0 21.0 0.00 0.00 0.00 67 1014.6
20190321203015 76 263 11.0 19.0 0.00 0.00 0.00 67 1014.6
20190321202815 76 12 6.0 20.0 0.00 0.00 0.00 67 1014.6
20190321202615 76 289 10.0 20.0 0.00 0.00 0.00 68 1014.6
20190321202415 76 314 2.0 20.0 0.00 0.00 0.00 68 1014.6
20190321202215 76 283 6.0 18.0 0.00 0.00 0.00 68 1014.6
20190321202016 76 277 12.0 18.0 0.00 0.00 0.00 68 1014.6
20190321201816 76 299 8.0 20.0 0.00 0.00 0.00 68 1014.6
20190321201616 76 289 10.0 20.0 0.00 0.00 0.00 68 1014.7
20190321201415 76 248 6.0 20.0 0.00 0.00 0.00 68 1014.7
20190321201215 76 261 8.0 17.0 0.00 0.00 0.00 68 1014.7
20190321200815 76 293 9.0 19.0 0.00 0.00 0.00 68 1014.7
20190321200615 76 276 11.0 19.0 0.00 0.00 0.00 68 1014.6
20190321200415 76 266 15.0 19.0 0.00 0.00 0.00 67 1014.6
20190321200215 76 344 5.0 21.0 0.00 0.00 0.00 68 1014.7
20190321195815 76 268 17.0 21.0 0.00 0.00 0.00 67 1014.7
20190321195615 76 355 7.0 21.0 0.00 0.00 0.00 67 1014.6
20190321195415 76 304 8.0 21.0 0.00 0.00 0.00 68 1014.7
20190321194815 76 277 9.0 21.0 0.00 0.00 0.00 67 1014.7
20190321194615 76 276 15.0 21.0 0.00 0.00 0.00 67 1014.7
20190321194416 76 285 7.0 21.0 0.00 0.00 0.00 67 1014.8
20190321194215 76 235 9.0 18.0 0.00 0.00 0.00 68 1014.8
20190321194016 76 352 5.0 18.0 0.00 0.00 0.00 67 1014.8
20190321193816 76 279 7.0 22.0 0.00 0.00 0.00 67 1014.8
20190321193616 76 304 11.0 22.0 0.00 0.00 0.00 67 1014.8
20190321193215 77 322 10.0 18.0 0.00 0.00 0.00 68 1014.8
20190321193016 77 272 14.0 18.0 0.00 0.00 0.00 68 1014.8
20190321192816 76 265 8.0 19.0 0.00 0.00 0.00 68 1014.9
20190321192616 76 292 11.0 19.0 0.00 0.00 0.00 68 1014.9
20190321192416 76 266 11.0 19.0 0.00 0.00 0.00 68 1014.9
20190321192216 76 296 9.0 17.0 0.00 0.00 0.00 68 1014.9
20190321192015 76 270 13.0 17.0 0.00 0.00 0.00 68 1015.0
20190321191615 77 272 12.0 16.0 0.00 0.00 0.00 68 1015.0
20190321191415 76 325 6.0 16.0 0.00 0.00 0.00 68 1015.1
20190321191215 77 276 14.0 15.0 0.00 0.00 0.00 68 1015.1
20190321191016 76 263 9.0 15.0 0.00 0.00 0.00 68 1015.1
20190321190815 77 337 3.0 15.0 0.00 0.00 0.00 68 1015.2
20190321190616 77 290 9.0 15.0 0.00 0.00 0.00 68 1015.2
20190321190217 77 256 12.0 17.0 0.00 0.00 0.00 69 1015.2
20190321190017 76 268 6.0 17.0 0.00 0.00 0.00 69 1015.3
20190321185816 77 256 7.0 16.0 0.00 0.00 0.00 68 1015.3
20190321185616 76 272 8.0 16.0 0.00 0.00 0.00 67 1015.3
20190321184816 76 232 4.0 17.0 0.00 0.00 0.00 69 1015.4
20190321184616 76 263 9.0 17.0 0.00 0.00 0.00 69 1015.4
20190321184416 76 285 6.0 17.0 0.00 0.00 0.00 69 1015.4
20190321184216 76 283 9.0 20.0 0.00 0.00 0.00 69 1015.4
20190321183616 76 261 5.0 16.0 0.00 0.00 0.00 69 1015.5
20190321183416 76 263 6.0 16.0 0.00 0.00 0.00 69 1015.5
20190321183215 77 272 8.0 15.0 0.00 0.00 0.00 69 1015.5
20190321183015 76 269 7.0 15.0 0.00 0.00 0.00 69 1015.6
20190321182816 76 265 9.0 16.0 0.00 0.00 0.00 69 1015.6
20190321182616 76 270 10.0 16.0 0.00 0.00 0.00 69 1015.6
20190321182416 76 306 6.0 16.0 0.00 0.00 0.00 69 1015.6
20190321182216 76 285 4.0 15.0 0.00 0.00 0.00 69 1015.6
20190321182016 76 280 8.0 15.0 0.00 0.00 0.00 69 1015.6
20190321181816 76 282 4.0 19.0 0.00 0.00 0.00 69 1015.6
20190321181616 76 283 6.0 19.0 0.00 0.00 0.00 69 1015.6
20190321181416 76 258 9.0 19.0 0.00 0.00 0.00 69 1015.6
20190321181216 76 252 11.0 17.0 0.00 0.00 0.00 69 1015.5
20190321181015 76 355 7.0 17.0 0.00 0.00 0.00 69 1015.5
20190321180615 76 282 8.0 15.0 0.00 0.00 0.00 68 1015.5
20190321180415 77 303 9.0 15.0 0.00 0.00 0.00 68 1015.6
20190321180216 76 225 5.0 15.0 0.00 0.00 0.00 69 1015.6
20190321180015 76 308 8.0 15.0 0.00 0.00 0.00 69 1015.6
20190321175816 76 296 3.0 20.0 0.00 0.00 0.00 69 1015.6
20190321175616 76 10 11.0 20.0 0.00 0.00 0.00 70 1015.6
20190321175416 76 308 8.0 20.0 0.00 0.00 0.00 70 1015.6
20190321175216 76 285 5.0 15.0 0.00 0.00 0.00 70 1015.6
20190321174815 76 320 7.0 16.0 0.00 0.00 0.00 69 1015.7
20190321174615 76 16 2.0 16.0 0.00 0.00 0.00 69 1015.7
20190321174415 76 328 5.0 16.0 0.00 0.00 0.00 69 1015.7
20190321174016 76 344 7.0 14.0 0.00 0.00 0.00 69 1015.8
20190321173815 77 320 4.0 16.0 0.00 0.00 0.00 68 1015.8
20190321173615 77 290 7.0 16.0 0.00 0.00 0.00 69 1015.8
20190321173216 77 287 6.0 16.0 0.00 0.00 0.00 69 1015.8
20190321173016 77 237 12.0 16.0 0.00 0.00 0.00 69 1015.8
20190321172816 77 254 7.0 13.0 0.00 0.00 0.00 69 1015.9
20190321172616 77 263 6.0 13.0 0.00 0.00 0.00 69 1015.9
20190321172416 77 328 9.0 13.0 0.00 0.00 0.00 69 1015.9
20190321172216 77 285 6.0 14.0 0.00 0.00 0.00 69 1015.9
20190321171416 77 265 0.0 13.0 0.00 0.00 0.00 70 1016.1
20190321171216 76 287 6.0 16.0 0.00 0.00 0.00 69 1016.1
20190321171015 76 304 9.0 16.0 0.00 0.00 0.00 69 1016.1
20190321170416 77 322 8.0 15.0 0.00 0.00 0.00 70 1016.2
20190321170216 76 287 8.0 16.0 0.00 0.00 0.00 70 1016.1
20190321165815 76 300 14.0 15.0 0.00 0.00 0.00 70 1016.2
20190321165615 76 268 13.0 15.0 0.00 0.00 0.00 70 1016.2
20190321165416 77 33 5.0 15.0 0.00 0.00 0.00 70 1016.3
20190321165216 77 261 7.0 17.0 0.00 0.00 0.00 70 1016.3
20190321165016 76 261 10.0 17.0 0.00 0.00 0.00 70 1016.3
20190321164616 76 358 6.0 17.0 0.00 0.00 0.00 71 1016.4
20190321164415 76 270 7.0 17.0 0.00 0.00 0.00 71 1016.3
20190321164215 77 310 9.0 15.0 0.00 0.00 0.00 71 1016.4
20190321164016 76 276 9.0 15.0 0.00 0.00 0.00 72 1016.4
20190321163616 76 310 7.0 15.0 0.00 0.00 0.00 71 1016.4
20190321163416 76 339 3.0 15.0 0.00 0.00 0.00 71 1016.4
20190321163215 76 308 8.0 15.0 0.00 0.00 0.00 71 1016.5
20190321163015 76 273 9.0 15.0 0.00 0.00 0.00 70 1016.5
20190321162816 76 299 3.0 15.0 0.00 0.00 0.00 71 1016.6
20190321162616 76 263 13.0 15.0 0.00 0.00 0.00 71 1016.6
20190321162415 76 254 13.0 15.0 0.00 0.00 0.00 71 1016.6
20190321162215 77 256 11.0 15.0 0.00 0.00 0.00 71 1016.7
20190321162015 76 275 13.0 15.0 0.00 0.00 0.00 71 1016.6
20190321161615 77 280 5.0 16.0 0.00 0.00 0.00 71 1016.6
20190321161416 77 286 14.0 16.0 0.00 0.00 0.00 71 1016.6
20190321161216 77 263 7.0 15.0 0.00 0.00 0.00 71 1016.7
20190321161015 77 277 6.0 15.0 0.00 0.00 0.00 71 1016.7
20190321160815 77 242 8.0 13.0 0.00 0.00 0.00 71 1016.7
20190321160215 77 269 8.0 12.0 0.00 0.00 0.00 70 1016.7
20190321160016 77 240 9.0 12.0 0.00 0.00 0.00 71 1016.7
20190321155815 77 13 3.0 10.0 0.00 0.00 0.00 71 1016.8
20190321155215 77 332 1.0 16.0 0.00 0.00 0.00 71 1016.7
20190321155016 77 280 3.0 16.0 0.00 0.00 0.00 71 1016.7
20190321154416 77 273 6.0 10.0 0.00 0.00 0.00 71 1016.8
20190321154215 77 322 0.0 12.0 0.00 0.00 0.00 71 1016.8
20190321154015 77 345 4.0 12.0 0.00 0.00 0.00 71 1016.8
20190321153815 77 276 4.0 11.0 0.00 0.00 0.00 71 1016.8
20190321153615 77 292 6.0 11.0 0.00 0.00 0.00 71 1016.7
20190321153415 77 254 4.0 11.0 0.00 0.00 0.00 72 1016.7
20190321153216 77 359 4.0 11.0 0.00 0.00 0.00 71 1016.8
20190321153016 77 256 7.0 11.0 0.00 0.00 0.00 71 1016.7
20190321152815 77 297 9.0 13.0 0.00 0.00 0.00 72 1016.8
20190321152615 77 241 7.0 13.0 0.00 0.00 0.00 72 1016.8
20190321152215 77 256 10.0 13.0 0.00 0.00 0.00 72 1016.8
20190321152015 76 334 5.0 13.0 0.00 0.00 0.00 72 1016.7
20190321151816 76 300 5.0 13.0 0.00 0.00 0.00 72 1016.7
20190321151616 77 251 6.0 13.0 0.00 0.00 0.00 72 1016.6
20190321151416 77 270 8.0 13.0 0.00 0.00 0.00 72 1016.7
20190321151216 77 266 7.0 14.0 0.00 0.00 0.00 72 1016.7
20190321151016 76 231 7.0 14.0 0.00 0.00 0.00 72 1016.7
20190321150816 76 234 6.0 13.0 0.00 0.00 0.00 72 1016.7
20190321150616 76 282 7.0 13.0 0.00 0.00 0.00 72 1016.6
20190321150417 76 279 11.0 13.0 0.00 0.00 0.00 72 1016.7
20190321150215 76 255 4.0 14.0 0.00 0.00 0.00 72 1016.7
20190321150016 76 268 10.0 14.0 0.00 0.00 0.00 72 1016.6
20190321145816 77 358 2.0 16.0 0.00 0.00 0.00 72 1016.6
20190321145616 77 259 10.0 16.0 0.00 0.00 0.00 72 1016.6
20190321145416 77 353 5.0 16.0 0.00 0.00 0.00 72 1016.6
20190321145216 76 345 6.0 14.0 0.00 0.00 0.00 72 1016.6
20190321144816 76 315 7.0 13.0 0.00 0.00 0.00 73 1016.6
20190321144415 76 9 3.0 13.0 0.00 0.00 0.00 73 1016.6
20190321144215 76 289 6.0 13.0 0.00 0.00 0.00 72 1016.6
20190321143815 77 279 9.0 14.0 0.00 0.00 0.00 72 1016.6
20190321143616 77 247 6.0 14.0 0.00 0.00 0.00 72 1016.6
20190321143415 77 265 2.0 14.0 0.00 0.00 0.00 72 1016.6
20190321143216 77 300 2.0 11.0 0.00 0.00 0.00 72 1016.6
20190321142815 77 300 4.0 10.0 0.00 0.00 0.00 72 1016.6
20190321142416 77 265 4.0 10.0 0.00 0.00 0.00 72 1016.6
20190321142216 76 304 5.0 14.0 0.00 0.00 0.00 72 1016.6
20190321142016 77 328 7.0 14.0 0.00 0.00 0.00 72 1016.6
20190321141816 76 266 3.0 12.0 0.00 0.00 0.00 72 1016.5
20190321141616 76 254 7.0 12.0 0.00 0.00 0.00 72 1016.5
20190321141415 77 325 5.0 12.0 0.00 0.00 0.00 72 1016.5
20190321141215 76 255 10.0 12.0 0.00 0.00 0.00 72 1016.5
20190321141015 76 265 11.0 12.0 0.00 0.00 0.00 72 1016.4
20190321140615 77 270 6.0 13.0 0.00 0.00 0.00 72 1016.3
20190321140415 76 263 5.0 13.0 0.00 0.00 0.00 71 1016.3
20190321140215 77 263 6.0 9.0 0.00 0.00 0.00 71 1016.3
20190321140016 77 290 5.0 9.0 0.00 0.00 0.00 72 1016.3
20190321135816 77 320 1.0 12.0 0.00 0.00 0.00 72 1016.2
20190321135616 76 287 4.0 12.0 0.00 0.00 0.00 72 1016.2
20190321135415 77 256 4.0 12.0 0.00 0.00 0.00 72 1016.2
20190321135215 77 280 8.0 10.0 0.00 0.00 0.00 71 1016.1
20190321135015 77 286 4.0 10.0 0.00 0.00 0.00 71 1016.1
20190321134815 77 301 4.0 9.0 0.00 0.00 0.00 71 1016.1
20190321134616 77 277 4.0 9.0 0.00 0.00 0.00 72 1016.1
20190321134416 77 270 1.0 9.0 0.00 0.00 0.00 72 1016.1
20190321134216 77 293 5.0 11.0 0.00 0.00 0.00 72 1016.0
20190321134015 77 307 6.0 11.0 0.00 0.00 0.00 72 1016.0
20190321133815 77 22 1.0 8.0 0.00 0.00 0.00 72 1016.0
20190321133615 77 251 7.0 8.0 0.00 0.00 0.00 72 1016.0
20190321133415 77 318 2.0 8.0 0.00 0.00 0.00 72 1016.0
20190321133215 77 10 4.0 12.0 0.00 0.00 0.00 72 1016.0
20190321133016 77 6 0.0 12.0 0.00 0.00 0.00 73 1015.9
20190321132815 77 328 8.0 11.0 0.00 0.00 0.00 73 1015.9
20190321132615 76 44 1.0 11.0 0.00 0.00 0.00 73 1015.9
20190321132416 76 270 7.0 11.0 0.00 0.00 0.00 73 1015.9
20190321132215 76 289 7.0 10.0 0.00 0.00 0.00 74 1015.9
20190321131816 76 50 3.0 9.0 0.00 0.00 0.00 75 1015.8
20190321131616 76 296 4.0 9.0 0.00 0.00 0.00 75 1015.8
20190321131415 76 268 7.0 9.0 0.00 0.00 0.00 75 1015.8
20190321131216 76 344 6.0 10.0 0.00 0.00 0.00 75 1015.7
20190321131016 75 353 2.0 10.0 0.00 0.00 0.00 75 1015.7
20190321130816 76 338 3.0 12.0 0.00 0.00 0.00 74 1015.7
20190321130616 76 301 2.0 12.0 0.00 0.00 0.00 74 1015.7
20190321130216 77 328 3.0 12.0 0.00 0.00 0.00 74 1015.6
20190321130016 77 307 4.0 12.0 0.00 0.00 0.00 73 1015.6
20190321125816 77 330 3.0 11.0 0.00 0.00 0.00 74 1015.5
20190321125616 77 254 0.0 11.0 0.00 0.00 0.00 74 1015.5
20190321125415 77 289 9.0 11.0 0.00 0.00 0.00 74 1015.5
20190321125215 76 342 4.0 10.0 0.00 0.00 0.00 75 1015.5
20190321124817 76 317 1.0 11.0 0.00 0.00 0.00 76 1015.5
20190321124416 76 346 1.0 11.0 0.00 0.00 0.00 77 1015.4
20190321124015 75 320 1.0 9.0 0.00 0.00 0.00 79 1015.5
20190321123816 75 321 0.0 10.0 0.00 0.00 0.00 80 1015.4
20190321123616 74 321 0.0 10.0 0.00 0.00 0.00 80 1015.4
20190321123016 74 268 3.0 9.0 0.00 0.00 0.00 81 1015.3
20190321122616 74 296 4.0 8.0 0.00 0.00 0.00 83 1015.3
20190321122415 73 328 5.0 8.0 0.00 0.00 0.00 84 1015.3
20190321122215 73 276 2.0 8.0 0.00 0.00 0.00 85 1015.4
20190321122016 73 358 0.0 8.0 0.00 0.00 0.00 86 1015.3
20190321121815 72 216 4.0 8.0 0.00 0.00 0.00 86 1015.3
20190321121616 72 349 2.0 8.0 0.00 0.00 0.00 86 1015.3
20190321121416 72 279 2.0 8.0 0.00 0.00 0.00 87 1015.3
20190321121216 71 287 0.0 7.0 0.00 0.00 0.00 87 1015.3
20190321121015 71 287 0.0 7.0 0.00 0.00 0.00 87 1015.3
20190321120615 71 349 0.0 8.0 0.00 0.00 0.00 87 1015.3
20190321120416 71 311 3.0 8.0 0.00 0.00 0.00 87 1015.3
20190321120215 71 275 3.0 7.0 0.00 0.00 0.00 87 1015.3
20190321115816 70 337 1.0 7.0 0.00 0.00 0.00 87 1015.2
20190321115415 70 287 2.0 7.0 0.00 0.00 0.00 87 1015.2
20190321115215 70 285 0.0 7.0 0.00 0.00 0.00 87 1015.2
20190321115016 70 308 1.0 7.0 0.00 0.00 0.00 87 1015.1
20190321114816 70 292 4.0 0.0 0.00 0.00 0.00 87 1015.1
20190321114615 70 286 0.0 0.0 0.00 0.00 0.00 87 1015.1
20190321114415 70 300 0.0 0.0 0.00 0.00 0.00 87 1015.1
20190321114216 70 300 0.0 4.0 0.00 0.00 0.00 87 1015.1
20190321113815 70 285 0.0 5.0 0.00 0.00 0.00 87 1015.0
20190321113415 70 345 0.0 5.0 0.00 0.00 0.00 87 1015.0
20190321113215 70 24 2.0 0.0 0.00 0.00 0.00 87 1015.0
20190321113016 71 280 0.0 0.0 0.00 0.00 0.00 87 1014.9
20190321112816 70 280 0.0 0.0 0.00 0.00 0.00 87 1014.9
20190321112415 70 280 0.0 0.0 0.00 0.00 0.00 87 1014.9
20190321112215 71 280 0.0 0.0 0.00 0.00 0.00 87 1014.9
20190321112015 71 280 0.0 0.0 0.00 0.00 0.00 87 1014.9
20190321111816 70 280 0.0 0.0 0.00 0.00 0.00 87 1014.9
20190321111616 71 280 0.0 0.0 0.00 0.00 0.00 87 1014.8
20190321111415 71 280 0.0 0.0 0.00 0.00 0.00 87 1014.8
20190321111215 71 280 0.0 0.0 0.00 0.00 0.00 87 1014.8
20190321111016 71 280 0.0 0.0 0.00 0.00 0.00 87 1014.8
20190321110816 70 280 0.0 8.0 0.00 0.00 0.00 87 1014.8
20190321110615 71 280 0.0 8.0 0.00 0.00 0.00 87 1014.7
20190321110216 71 342 2.0 6.0 0.00 0.00 0.00 87 1014.6
20190321110016 71 325 0.0 6.0 0.00 0.00 0.00 87 1014.6
20190321105815 71 301 3.0 0.0 0.00 0.00 0.00 87 1014.7
20190321105416 71 342 0.0 0.0 0.00 0.00 0.00 87 1014.6
20190321105215 71 342 0.0 7.0 0.00 0.00 0.00 87 1014.5
20190321105016 71 342 0.0 7.0 0.00 0.00 0.00 87 1014.5
20190321104815 71 342 0.0 4.0 0.00 0.00 0.00 87 1014.5
20190321104616 71 353 0.0 4.0 0.00 0.00 0.00 87 1014.5
20190321104216 71 328 0.0 6.0 0.00 0.00 0.00 87 1014.4
20190321103816 71 292 0.0 5.0 0.00 0.00 0.00 87 1014.4
20190321103616 71 270 1.0 5.0 0.00 0.00 0.00 87 1014.4
20190321103216 71 300 0.0 1.0 0.00 0.00 0.00 87 1014.3
20190321103015 71 0 1.0 1.0 0.00 0.00 0.00 87 1014.3
20190321102815 71 338 0.0 4.0 0.00 0.00 0.00 87 1014.3
20190321102615 71 338 1.0 4.0 0.00 0.00 0.00 86 1014.3
20190321102416 71 41 0.0 4.0 0.00 0.00 0.00 86 1014.3
20190321102216 71 328 2.0 0.0 0.00 0.00 0.00 86 1014.2
20190321102015 71 324 1.0 0.0 0.00 0.00 0.00 86 1014.2
20190321101816 71 275 0.0 0.0 0.00 0.00 0.00 86 1014.2
20190321101615 71 275 0.0 0.0 0.00 0.00 0.00 87 1014.2
20190321101416 71 275 0.0 0.0 0.00 0.00 0.00 87 1014.2
20190321101016 71 275 0.0 8.0 0.00 0.00 0.00 87 1014.1
20190321100816 71 261 4.0 6.0 0.00 0.00 0.00 87 1014.1
20190321100616 71 275 6.0 6.0 0.00 0.00 0.00 87 1014.1
20190321100416 71 356 1.0 6.0 0.00 0.00 0.00 87 1014.1
20190321100216 71 346 0.0 5.0 0.00 0.00 0.00 87 1014.1
20190321095616 71 346 0.0 6.0 0.00 0.00 0.00 87 1014.1
20190321095415 71 297 0.0 6.0 0.00 0.00 0.00 87 1014.1
20190321095215 71 332 2.0 5.0 0.00 0.00 0.00 87 1014.0
20190321095015 71 339 0.0 5.0 0.00 0.00 0.00 86 1014.0
20190321094815 71 339 0.0 0.0 0.00 0.00 0.00 86 1014.0
20190321094615 71 308 0.0 0.0 0.00 0.00 0.00 86 1014.0
20190321094416 71 314 0.0 0.0 0.00 0.00 0.00 86 1014.0
20190321094215 71 314 0.0 0.0 0.00 0.00 0.00 86 1014.0
20190321094016 71 314 0.0 0.0 0.00 0.00 0.00 86 1014.0
20190321093616 71 314 0.0 0.0 0.00 0.00 0.00 86 1013.9
20190321093416 71 314 0.0 0.0 0.00 0.00 0.00 86 1013.9
20190321093215 71 314 0.0 4.0 0.00 0.00 0.00 86 1013.9
20190321093016 71 314 0.0 4.0 0.00 0.00 0.00 87 1013.9
20190321092816 71 314 0.0 6.0 0.00 0.00 0.00 87 1013.9
20190321092616 71 301 0.0 6.0 0.00 0.00 0.00 87 1013.9
20190321092416 71 299 2.0 6.0 0.00 0.00 0.00 87 1013.9
20190321092015 71 22 1.0 8.0 0.00 0.00 0.00 87 1013.9
20190321091819 71 328 0.0 7.0 0.00 0.00 0.00 87 1013.9
20190321091615 71 331 0.0 7.0 0.00 0.00 0.00 87 1013.9
20190321091416 71 293 4.0 7.0 0.00 0.00 0.00 87 1013.9
20190321091216 71 352 3.0 0.0 0.00 0.00 0.00 87 1013.9
20190321091015 71 254 2.0 0.0 0.00 0.00 0.00 87 1013.9
20190321090815 71 62 0.0 5.0 0.00 0.00 0.00 87 1013.8
20190321090617 71 62 0.0 5.0 0.00 0.00 0.00 87 1013.9
20190321090416 71 62 0.0 5.0 0.00 0.00 0.00 87 1013.8
20190321090216 71 62 0.0 5.0 0.00 0.00 0.00 87 1013.8
20190321090015 71 16 0.0 5.0 0.00 0.00 0.00 87 1013.8
20190321085816 71 43 1.0 3.0 0.00 0.00 0.00 87 1013.8
20190321085415 71 344 0.0 3.0 0.00 0.00 0.00 87 1013.9
20190321085215 71 279 0.0 0.0 0.00 0.00 0.00 87 1013.8
20190321084815 71 279 0.0 3.0 0.00 0.00 0.00 87 1013.8
20190321084615 71 279 0.0 3.0 0.00 0.00 0.00 87 1013.9
20190321084415 71 279 0.0 3.0 0.00 0.00 0.00 87 1013.9
20190321084215 71 261 0.0 0.0 0.00 0.00 0.00 87 1013.8
20190321084015 71 261 0.0 0.0 0.00 0.00 0.00 87 1013.8
20190321083415 71 261 0.0 0.0 0.00 0.00 0.00 87 1013.9
20190321083216 71 261 0.0 0.0 0.00 0.00 0.00 87 1013.9
20190321083016 71 261 0.0 0.0 0.00 0.00 0.00 87 1013.9
20190321082816 71 261 0.0 0.0 0.00 0.00 0.00 87 1013.9
20190321082616 71 261 0.0 0.0 0.00 0.00 0.00 87 1013.9
20190321082416 71 261 0.0 0.0 0.00 0.00 0.00 86 1013.9
20190321082216 71 261 0.0 0.0 0.00 0.00 0.00 86 1013.9
20190321082016 71 261 0.0 0.0 0.00 0.00 0.00 86 1013.8
20190321081816 71 261 0.0 1.0 0.00 0.00 0.00 86 1013.9
20190321081616 71 261 0.0 1.0 0.00 0.00 0.00 86 1013.9
20190321081415 71 261 0.0 1.0 0.00 0.00 0.00 86 1013.9
20190321081216 71 261 0.0 2.0 0.00 0.00 0.00 86 1013.8
20190321081015 71 325 0.0 2.0 0.00 0.00 0.00 86 1013.8
20190321080815 71 325 0.0 1.0 0.00 0.00 0.00 86 1013.9
20190321080615 71 325 0.0 1.0 0.00 0.00 0.00 86 1013.9
20190321080416 71 300 0.0 1.0 0.00 0.00 0.00 86 1013.9
20190321080016 71 328 0.0 0.0 0.00 0.00 0.00 86 1013.9
20190321075815 71 328 0.0 0.0 0.00 0.00 0.00 86 1013.9
20190321075615 71 328 0.0 0.0 0.00 0.00 0.00 86 1013.9
20190321075415 71 328 0.0 0.0 0.00 0.00 0.00 86 1013.9
20190321075215 71 328 0.0 0.0 0.00 0.00 0.00 86 1013.9
20190321075015 71 328 0.0 0.0 0.00 0.00 0.00 86 1013.9
20190321074815 71 328 0.0 0.0 0.00 0.00 0.00 86 1013.9
20190321074615 71 328 0.0 0.0 0.00 0.00 0.00 86 1014.0
20190321074416 71 328 0.0 0.0 0.00 0.00 0.00 86 1014.0
20190321074216 71 328 0.0 0.0 0.00 0.00 0.00 86 1014.0
20190321074016 71 328 0.0 0.0 0.00 0.00 0.00 86 1014.0
20190321073816 71 328 0.0 6.0 0.00 0.00 0.00 86 1014.0
20190321073416 71 328 0.0 6.0 0.00 0.00 0.00 86 1014.0
20190321073215 71 349 1.0 0.0 0.00 0.00 0.00 87 1014.0
20190321073016 71 341 0.0 0.0 0.00 0.00 0.00 87 1014.1
20190321072816 71 9 0.0 0.0 0.00 0.00 0.00 87 1014.1
20190321072616 71 9 0.0 0.0 0.00 0.00 0.00 87 1014.1
20190321072415 71 9 0.0 0.0 0.00 0.00 0.00 87 1014.2
20190321072216 71 9 0.0 0.0 0.00 0.00 0.00 87 1014.2
20190321072015 71 9 0.0 0.0 0.00 0.00 0.00 87 1014.2
20190321071815 71 9 0.0 6.0 0.00 0.00 0.00 87 1014.2
20190321071616 71 9 0.0 6.0 0.00 0.00 0.00 87 1014.2
20190321071415 71 9 0.0 6.0 0.00 0.00 0.00 86 1014.2
20190321071215 71 9 0.0 4.0 0.00 0.00 0.00 86 1014.2
20190321071015 71 58 1.0 4.0 0.00 0.00 0.00 86 1014.2
20190321070815 71 324 0.0 7.0 0.00 0.00 0.00 86 1014.2
20190321070615 71 348 0.0 7.0 0.00 0.00 0.00 86 1014.2
20190321070415 71 342 0.0 7.0 0.00 0.00 0.00 86 1014.2
20190321070216 71 346 2.0 6.0 0.00 0.00 0.00 86 1014.3
20190321070015 71 27 0.0 6.0 0.00 0.00 0.00 86 1014.3
20190321065816 71 48 0.0 0.0 0.00 0.00 0.00 86 1014.3
20190321065616 71 48 0.0 0.0 0.00 0.00 0.00 86 1014.3
20190321065415 71 48 0.0 0.0 0.00 0.00 0.00 86 1014.3
20190321065215 71 48 0.0 6.0 0.00 0.00 0.00 86 1014.4
20190321065015 71 48 0.0 6.0 0.00 0.00 0.00 86 1014.4
20190321064815 71 48 0.0 0.0 0.00 0.00 0.00 86 1014.5
20190321064615 71 44 0.0 0.0 0.00 0.00 0.00 86 1014.5
20190321064416 71 44 0.0 0.0 0.00 0.00 0.00 86 1014.4
20190321064016 71 44 0.0 5.0 0.00 0.00 0.00 86 1014.5
20190321063815 71 44 0.0 5.0 0.00 0.00 0.00 86 1014.5
20190321063615 71 17 2.0 5.0 0.00 0.00 0.00 86 1014.5
20190321063415 71 6 1.0 5.0 0.00 0.00 0.00 86 1014.5
20190321063216 71 52 0.0 6.0 0.00 0.00 0.00 86 1014.5
20190321063015 71 36 2.0 6.0 0.00 0.00 0.00 86 1014.6
20190321062815 71 251 0.0 7.0 0.00 0.00 0.00 86 1014.6
20190321062615 71 251 0.0 7.0 0.00 0.00 0.00 86 1014.7
20190321062416 71 68 4.0 7.0 0.00 0.00 0.00 86 1014.7